• In Deutschland
  • Länderverzeichnis
  • Für 7 Tage
  • Wassertemperatur
  • Satellitenkarten
  • Wetterkarte
  • Widgets
  • user-avatar
    Anmelden

    Stündliche Wetter San Miguel de Tucumán

    Heute, 17 August, Donnerstag

    Zeit Temperatur Niederschläge Wind Luftdruck Luftfeuchtigkeit
    00:00 +18°C° 0 mm 1 m/S 723 mmHg 58%
    01:00 +16°C° 0 mm 1 m/S 722 mmHg 58%
    02:00 +16°C° 0 mm 1 m/S 722 mmHg 58%
    03:00 +16°C° 0 mm 1 m/S 721 mmHg 56%
    04:00 +15°C° 0 mm 1 m/S 721 mmHg 55%
    05:00 +15°C° 0 mm 1 m/S 721 mmHg 54%
    06:00 +16°C° 0 mm 1 m/S 721 mmHg 51%
    07:00 +16°C° 0 mm 1 m/S 721 mmHg 49%
    08:00 +18°C° 0 mm 1 m/S 721 mmHg 47%
    09:00 +21°C° 0 mm 1 m/S 722 mmHg 42%
    10:00 +23°C° 0 mm 1 m/S 722 mmHg 36%
    11:00 +26°C° 0 mm 2 m/S 722 mmHg 31%
    12:00 +27°C° 0 mm 2 m/S 721 mmHg 29%
    13:00 +28°C° 0 mm 2 m/S 721 mmHg 27%
    14:00 +29°C° 0 mm 2 m/S 720 mmHg 25%
    15:00 +28°C° 0 mm 2 m/S 720 mmHg 27%
    16:00 +28°C° 0 mm 2 m/S 720 mmHg 28%
    17:00 +27°C° 0 mm 2 m/S 720 mmHg 30%
    18:00 +25°C° 0 mm 2 m/S 720 mmHg 34%
    19:00 +23°C° 0 mm 2 m/S 720 mmHg 38%
    20:00 +21°C° 0 mm 2 m/S 720 mmHg 42%
    21:00 +20°C° 0 mm 2 m/S 720 mmHg 43%
    22:00 +20°C° 0 mm 2 m/S 720 mmHg 43%
    23:00 +19°C° 0 mm 2 m/S 720 mmHg 44%

    Morgen, 18 August, Freitag

    Zeit Temperatur Niederschläge Wind Luftdruck Luftfeuchtigkeit
    00:00 +19°C° 0 mm 2 m/S 719 mmHg 44%
    01:00 +19°C° 0 mm 2 m/S 719 mmHg 44%
    02:00 +19°C° 0 mm 2 m/S 718 mmHg 44%
    03:00 +18°C° 0 mm 2 m/S 718 mmHg 43%
    04:00 +18°C° 0 mm 2 m/S 717 mmHg 43%
    05:00 +18°C° 0 mm 2 m/S 716 mmHg 42%
    06:00 +18°C° 0 mm 2 m/S 716 mmHg 41%
    07:00 +19°C° 0 mm 3 m/S 716 mmHg 39%
    08:00 +20°C° 0 mm 3 m/S 716 mmHg 38%
    09:00 +24°C° 0 mm 3 m/S 716 mmHg 34%
    10:00 +26°C° 0 mm 3 m/S 716 mmHg 29%
    11:00 +29°C° 0 mm 4 m/S 716 mmHg 25%
    12:00 +30°C° 0 mm 4 m/S 714 mmHg 23%
    13:00 +32°C° 0 mm 4 m/S 713 mmHg 21%
    14:00 +33°C° 0 mm 4 m/S 712 mmHg 20%
    15:00 +33°C° 0 mm 4 m/S 712 mmHg 22%
    16:00 +32°C° 0 mm 4 m/S 711 mmHg 25%
    17:00 +30°C° 0 mm 4 m/S 711 mmHg 27%
    18:00 +29°C° 0 mm 4 m/S 711 mmHg 30%
    19:00 +27°C° 0 mm 4 m/S 711 mmHg 32%
    20:00 +25°C° 0 mm 3 m/S 712 mmHg 35%
    21:00 +24°C° 0 mm 3 m/S 712 mmHg 35%
    22:00 +24°C° 0 mm 3 m/S 712 mmHg 35%
    23:00 +23°C° 0 mm 2 m/S 712 mmHg 34%

    übermorgen, 19 August, Samstag

    Zeit Temperatur Niederschläge Wind Luftdruck Luftfeuchtigkeit
    00:00 +23°C° 0 mm 2 m/S 712 mmHg 35%
    01:00 +21°C° 0 mm 2 m/S 712 mmHg 35%
    02:00 +20°C° 0 mm 2 m/S 712 mmHg 35%
    03:00 +20°C° 0 mm 2 m/S 712 mmHg 34%
    04:00 +20°C° 0 mm 2 m/S 712 mmHg 34%
    05:00 +19°C° 0 mm 2 m/S 712 mmHg 33%
    06:00 +20°C° 0 mm 2 m/S 713 mmHg 33%
    07:00 +21°C° 0 mm 2 m/S 714 mmHg 34%
    08:00 +21°C° 0 mm 2 m/S 715 mmHg 34%
    09:00 +24°C° 0 mm 3 m/S 716 mmHg 34%
    10:00 +25°C° 0 mm 4 m/S 717 mmHg 33%
    11:00 +26°C° 0 mm 5 m/S 718 mmHg 32%
    12:00 +26°C° 0 mm 5 m/S 718 mmHg 35%
    13:00 +26°C° 0 mm 5 m/S 717 mmHg 37%
    14:00 +26°C° 0 mm 5 m/S 717 mmHg 39%
    15:00 +25°C° 0 mm 5 m/S 718 mmHg 42%
    16:00 +23°C° 0 mm 5 m/S 718 mmHg 45%
    17:00 +23°C° 0 mm 5 m/S 719 mmHg 47%
    18:00 +21°C° 0 mm 4 m/S 721 mmHg 49%
    19:00 +20°C° 0 mm 3 m/S 722 mmHg 51%
    20:00 +19°C° 0 mm 2 m/S 724 mmHg 53%
    21:00 +18°C° 0 mm 2 m/S 724 mmHg 55%
    22:00 +18°C° 0 mm 1 m/S 725 mmHg 58%
    23:00 +15°C° 0 mm 0 m/S 726 mmHg 61%

    20 August, Sonntag

    Zeit Temperatur Niederschläge Wind Luftdruck Luftfeuchtigkeit
    00:00 +15°C° 0 mm 1 m/S 726 mmHg 62%
    01:00 +15°C° 0 mm 1 m/S 726 mmHg 63%
    02:00 +14°C° 0 mm 1 m/S 726 mmHg 64%
    03:00 +14°C° 0 mm 1 m/S 727 mmHg 65%
    04:00 +13°C° 0 mm 1 m/S 727 mmHg 66%
    05:00 +13°C° 0 mm 1 m/S 727 mmHg 66%
    06:00 +13°C° 0 mm 1 m/S 728 mmHg 63%
    07:00 +14°C° 0 mm 1 m/S 729 mmHg 61%
    08:00 +15°C° 0 mm 1 m/S 730 mmHg 58%
    09:00 +16°C° 0 mm 2 m/S 730 mmHg 51%
    10:00 +18°C° 0 mm 2 m/S 730 mmHg 44%
    11:00 +19°C° 0 mm 3 m/S 730 mmHg 37%
    12:00 +20°C° 0 mm 3 m/S 730 mmHg 35%
    13:00 +21°C° 0 mm 3 m/S 729 mmHg 32%
    14:00 +24°C° 0 mm 3 m/S 728 mmHg 30%
    15:00 +22°C° 0 mm 3 m/S 728 mmHg 30%
    16:00 +22°C° 0 mm 4 m/S 727 mmHg 30%
    17:00 +22°C° 0 mm 4 m/S 727 mmHg 29%
    18:00 +20°C° 0 mm 3 m/S 727 mmHg 31%
    19:00 +19°C° 0 mm 3 m/S 727 mmHg 33%
    20:00 +17°C° 0 mm 3 m/S 727 mmHg 34%
    21:00 +17°C° 0 mm 3 m/S 727 mmHg 34%
    22:00 +16°C° 0 mm 3 m/S 727 mmHg 34%
    23:00 +16°C° 0 mm 3 m/S 727 mmHg 34%

    21 August, Montag

    Zeit Temperatur Niederschläge Wind Luftdruck Luftfeuchtigkeit
    00:00 +16°C° 0 mm 3 m/S 726 mmHg 35%
    01:00 +14°C° 0 mm 3 m/S 726 mmHg 35%
    02:00 +14°C° 0 mm 3 m/S 725 mmHg 36%
    03:00 +14°C° 0 mm 3 m/S 725 mmHg 37%
    04:00 +14°C° 0 mm 3 m/S 725 mmHg 39%
    05:00 +13°C° 0 mm 3 m/S 725 mmHg 40%
    06:00 +14°C° 0 mm 4 m/S 725 mmHg 40%
    07:00 +14°C° 0 mm 4 m/S 725 mmHg 39%
    08:00 +15°C° 0 mm 4 m/S 726 mmHg 39%
    09:00 +18°C° 0 mm 4 m/S 725 mmHg 34%
    10:00 +21°C° 0 mm 4 m/S 725 mmHg 28%
    11:00 +23°C° 0 mm 5 m/S 725 mmHg 23%
    12:00 +25°C° 0 mm 5 m/S 724 mmHg 22%
    13:00 +26°C° 0 mm 5 m/S 723 mmHg 21%
    14:00 +27°C° 0 mm 5 m/S 722 mmHg 20%
    15:00 +27°C° 0 mm 5 m/S 722 mmHg 21%
    16:00 +26°C° 0 mm 4 m/S 722 mmHg 22%
    17:00 +25°C° 0 mm 4 m/S 722 mmHg 23%
    18:00 +23°C° 0 mm 4 m/S 722 mmHg 26%
    19:00 +21°C° 0 mm 4 m/S 722 mmHg 28%
    20:00 +19°C° 0 mm 4 m/S 722 mmHg 30%
    21:00 +19°C° 0 mm 4 m/S 722 mmHg 31%
    22:00 +19°C° 0 mm 4 m/S 721 mmHg 31%
    23:00 +18°C° 0 mm 4 m/S 721 mmHg 31%

    22 August, Dienstag

    Zeit Temperatur Niederschläge Wind Luftdruck Luftfeuchtigkeit
    00:00 +18°C° 0 mm 4 m/S 720 mmHg 31%
    01:00 +18°C° 0 mm 4 m/S 720 mmHg 31%
    02:00 +18°C° 0 mm 3 m/S 719 mmHg 31%
    03:00 +18°C° 0 mm 3 m/S 719 mmHg 31%
    04:00 +17°C° 0 mm 3 m/S 718 mmHg 31%
    05:00 +17°C° 0 mm 3 m/S 718 mmHg 31%
    06:00 +18°C° 0 mm 3 m/S 718 mmHg 30%
    07:00 +19°C° 0 mm 3 m/S 718 mmHg 29%
    08:00 +19°C° 0 mm 3 m/S 718 mmHg 28%
    09:00 +22°C° 0 mm 3 m/S 718 mmHg 24%
    10:00 +26°C° 0 mm 4 m/S 718 mmHg 20%
    11:00 +29°C° 0 mm 4 m/S 717 mmHg 16%
    12:00 +30°C° 0 mm 4 m/S 716 mmHg 15%
    13:00 +32°C° 0 mm 4 m/S 715 mmHg 14%
    14:00 +34°C° 0 mm 5 m/S 714 mmHg 13%
    15:00 +33°C° 0 mm 5 m/S 714 mmHg 14%
    16:00 +32°C° 0 mm 5 m/S 713 mmHg 15%
    17:00 +30°C° 0 mm 5 m/S 713 mmHg 16%
    18:00 +28°C° 0 mm 5 m/S 713 mmHg 18%
    19:00 +27°C° 0 mm 5 m/S 713 mmHg 19%
    20:00 +25°C° 0 mm 4 m/S 713 mmHg 21%
    21:00 +23°C° 0 mm 4 m/S 713 mmHg 20%
    22:00 +23°C° 0 mm 4 m/S 713 mmHg 20%
    23:00 +23°C° 0 mm 4 m/S 712 mmHg 20%
    Mehr zeigen